Location: Berg
(47.2344°N, 9.5296°E)
Time: 22:21:25
(UTC+00:00)

NOAA 15 - Pass Details

Date: 24 January 2021
Orbit: 798 x 812 km, 98.7° (Epoch: 04 March)

Event Time Altitude Azimuth Distance (km) Brightness Sun altitude
Rises 17:49:54 0° 160° (SSE) 3,296 7.7 -16.5°
Reaches altitude 10° 17:52:12 10° 159° (SSE) 2,371 6.9 -16.9°
Maximum altitude 17:57:27 79° 73° (ENE) 823 4.5 -17.7°
Drops below altitude 10° 18:02:45 10° 348° (NNW) 2,397 7.1 -18.6°
Sets 18:05:06 0° 347° (NNW) 3,335 7.9 -19.0°
